Weather reports worldwide

Advertisment
Le Luc, France (7675): temperature & dewpoint: 06.12.2018 00:00:00 - 12.12.2018 00:00:00 (CET)Le Luc, France (7675): temperature 5cm: 06.12.2018 00:00:00 - 12.12.2018 00:00:00 (CET)Le Luc, France (7675): wind speed & gusts: 06.12.2018 00:00:00 - 12.12.2018 00:00:00 (CET)Le Luc, France (7675): wind direction: 06.12.2018 00:00:00 - 12.12.2018 00:00:00 (CET)Le Luc, France (7675): reduced air pressure: 06.12.2018 00:00:00 - 12.12.2018 00:00:00 (CET)Le Luc, France (7675): visibility: 06.12.2018 00:00:00 - 12.12.2018 00:00:00 (CET)Le Luc, France (7675): sunshine duration: 06.12.2018 00:00:00 - 12.12.2018 00:00:00 (CET)Le Luc, France (7675): precipitation: 06.12.2018 00:00:00 - 12.12.2018 00:00:00 (CET)
Date & Time tt [°C] td [°C] tt 5cm [°C] ff [km/h] ff [kn] fx [km/h] fx [kn] dd ppp [hPa] vv [km] sd [min] rr [mm]
12.12.2018 00:00:00 3,4 2,4 0,9 0 0 4 2 N 1019,4 20 0 0,0
11.12.2018 23:00:00 3,9 3,0 1,8 2 1 4 2 W 1019,4 19 0 0,0
11.12.2018 22:00:00 3,7 2,7 1,8 3 2 6 3 ENE 1019,0 17 0 0,0
11.12.2018 21:00:00 4,3 3,1 1,6 0 0 5 3 N 1018,8 17 0 0,0
11.12.2018 20:00:00 5,0 3,8 1,9 0 0 9 5 N 1018,6 23 0 0,0
11.12.2018 19:00:00 7,1 4,7 4,3 0 0 11 6 N 1018,0 39 0 0,0
11.12.2018 18:00:00 8,2 5,5 5,3 3 2 11 6 SW 1017,6 45 0 0,0
11.12.2018 17:00:00 11,0 5,5 7,9 0 0 8 4 N 1017,3 50 33 0,0
11.12.2018 16:00:00 14,0 5,4 15,5 5 3 15 8 E 1017,1 45 60 0,0
11.12.2018 15:00:00 14,6 4,8 18,8 4 2 14 8 ESE 1017,1 45 60 0,0
11.12.2018 14:00:00 14,6 4,0 20,4 3 2 8 4 W 1017,6 39 60 0,0
11.12.2018 13:00:00 13,9 2,1 19,7 0 0 9 5 N 1018,1 39 60 0,0
11.12.2018 12:00:00 12,4 1,4 16,6 3 1 10 5 N 1018,6 38 60 0,0
11.12.2018 11:00:00 10,5 0,5 12,7 9 5 18 10 W 1019,2 36 60 0,0
11.12.2018 10:00:00 8,4 1,3 6,2 7 4 16 9 W 1019,2 49 34 0,0
11.12.2018 09:00:00 6,5 0,2 3,8 10 5 16 8 WSW 1019,0 50 30 0,0
11.12.2018 08:00:00 5,7 -0,2 3,8 7 4 13 7 SW 1018,7 50 0 0,0
11.12.2018 07:00:00 6,2 0,1 4,4 5 3 26 14 SSW 1018,6 50 0 0,0
11.12.2018 06:00:00 6,9 0,3 4,8 10 6 30 16 WSW 1018,8 50 0 0,0
11.12.2018 05:00:00 7,0 0,2 4,6 9 5 16 9 SW 1018,9 50 0 0,0
11.12.2018 04:00:00 7,1 0,1 5,1 10 5 24 13 SW 1018,9 50 0 0,0
11.12.2018 03:00:00 7,4 0,4 5,4 10 6 23 12 SW 1019,4 50 0 0,0
11.12.2018 02:00:00 7,4 0,6 5,4 9 5 19 10 SW 1019,6 50 0 0,0
11.12.2018 01:00:00 7,7 0,4 5,0 5 3 16 9 SSW 1019,9 50 0 0,0
11.12.2018 00:00:00 8,0 0,2 5,5 5 3 26 14 S 1020,0 50 0 0,0
10.12.2018 23:00:00 9,5 -0,1 7,9 17 9 41 22 W 1020,0 50 0 0,0
10.12.2018 22:00:00 9,6 0,2 8,1 21 11 40 21 WNW 1020,1 50 0 0,0
10.12.2018 21:00:00 10,0 0,3 8,8 26 14 48 26 WNW 1020,2 50 0 0,0
10.12.2018 20:00:00 10,7 0,1 9,6 27 15 48 26 WNW 1020,3 50 0 0,0
10.12.2018 19:00:00 11,4 -0,4 10,2 24 13 57 31 WNW 1019,8 50 0 0,0
10.12.2018 18:00:00 12,2 -1,4 10,7 22 12 58 32 WNW 1019,5 50 0 0,0
10.12.2018 17:00:00 13,1 -1,3 11,9 37 20 67 36 NW 1018,5 50 33 0,0
10.12.2018 16:00:00 14,3 -1,4 14,5 39 21 80 43 NW 1018,3 50 60 0,0
10.12.2018 15:00:00 14,8 -1,8 16,2 49 27 75 40 NW 1018,1 39 60 0,0
10.12.2018 14:00:00 15,4 -0,4 17,2 35 19 63 34 NW 1019,5 50 60 0,0
10.12.2018 13:00:00 15,5 0,9 17,0 33 18 63 34 NNW 1020,2 46 60 0,0
10.12.2018 12:00:00 14,8 0,6 16,0 32 17 50 27 NW 1020,8 44 60 0,0
10.12.2018 11:00:00 13,8 1,1 14,5 29 16 56 30 NW 1021,4 41 60 0,0
10.12.2018 10:00:00 12,9 0,9 12,5 33 18 59 32 NW 1020,9 42 60 0,0
10.12.2018 09:00:00 11,9 0,3 10,2 33 18 62 34 WNW 1020,2 49 39 0,0
10.12.2018 08:00:00 11,3 -0,2 10,0 39 21 68 37 WNW 1019,1 50 0 0,0
10.12.2018 07:00:00 11,1 0,5 10,1 46 25 68 37 WNW 1018,7 50 0 0,0
10.12.2018 06:00:00 11,4 0,8 10,2 47 25 73 39 WNW 1018,5 50 0 0,0
10.12.2018 05:00:00 11,5 1,7 9,8 32 18 51 28 WNW 1019,2 50 0 0,0
10.12.2018 04:00:00 11,3 2,1 9,9 23 13 53 29 NW 1020,0 50 0 0,0
10.12.2018 03:00:00 11,3 2,3 9,8 35 19 61 33 WNW 1020,4 50 0 0,0
10.12.2018 02:00:00 11,4 2,7 9,8 22 12 48 26 WNW 1020,5 50 0 0,0
10.12.2018 01:00:00 11,5 2,8 10,4 31 17 56 31 WNW 1020,1 50 0 0,0
10.12.2018 00:00:00 11,8 2,8 10,7 34 18 61 33 WNW 1019,7 50 0 0,0
09.12.2018 23:00:00 11,9 2,6 10,7 32 18 66 36 WNW 1019,2 50 0 0,0
09.12.2018 22:00:00 11,9 2,6 10,8 32 17 66 35 WNW 1018,7 50 0 0,0
09.12.2018 21:00:00 12,3 2,4 11,1 41 22 71 39 W 1018,3 50 0 0,0
09.12.2018 20:00:00 12,5 2,6 10,8 42 23 67 36 WNW 1018,0 50 0 0,0
09.12.2018 19:00:00 11,9 4,4 10,8 35 19 69 37 W 1017,1 50 0 0,0
09.12.2018 18:00:00 12,2 5,4 11,3 44 24 77 41 WNW 1016,6 50 0 0,0
09.12.2018 17:00:00 12,3 5,5 10,3 41 22 69 38 W 1016,6 50 33 0,0
09.12.2018 16:00:00 12,2 7,1 10,4 41 22 68 37 WNW 1016,3 16 36 0,0
09.12.2018 15:00:00 14,1 5,4 14,2 41 22 71 38 WNW 1016,0 44 45 0,0
09.12.2018 14:00:00 16,3 4,3 18,2 39 21 68 37 W 1015,3 36 60 0,0
09.12.2018 13:00:00 16,6 4,9 18,0 37 20 87 47 W 1015,5 36 60 0,0
09.12.2018 12:00:00 16,3 6,7 17,8 37 20 61 33 W 1015,2 37 60 0,0
09.12.2018 11:00:00 15,5 7,3 15,6 37 20 61 33 W 1016,1 35 60 0,0
09.12.2018 10:00:00 14,1 7,6 12,2 42 23 77 41 W 1016,0 50 30 0,0
09.12.2018 09:00:00 12,4 7,1 10,8 38 20 66 36 W 1015,9 50 3 0,0
09.12.2018 08:00:00 11,8 7,3 10,1 38 21 68 37 W 1016,6 50 0 0,0
09.12.2018 07:00:00 11,0 6,9 9,6 34 19 67 36 W 1016,8 50 0 0,0
09.12.2018 06:00:00 10,9 6,2 9,5 33 18 57 31 W 1017,2 47 0 0,0
09.12.2018 05:00:00 10,8 6,0 9,6 33 18 54 29 W 1017,1 39 0 0,0
09.12.2018 04:00:00 11,0 5,7 9,2 20 11 36 19 W 1017,7 50 0 0,0
09.12.2018 03:00:00 11,5 4,9 9,6 13 7 49 26 W 1018,4 50 0 0,0
09.12.2018 02:00:00 11,5 4,0 9,8 16 9 46 25 WSW 1018,3 50 0 0,0
09.12.2018 01:00:00 11,8 3,5 9,1 13 7 39 21 WSW 1018,9 50 0 0,0
09.12.2018 00:00:00 11,4 3,2 9,4 10 5 34 18 SW 1019,5 50 0 0,0
08.12.2018 23:00:00 11,4 2,7 9,5 9 5 31 17 SW 1019,7 50 0 0,0
08.12.2018 22:00:00 11,7 2,7 10,1 16 9 43 23 WSW 1020,0 50 0 0,0
08.12.2018 21:00:00 12,4 2,3 10,4 23 13 45 24 WSW 1019,6 50 0 0,0
08.12.2018 20:00:00 12,5 2,1 10,8 24 13 41 22 W 1019,6 50 0 0,0
08.12.2018 19:00:00 12,4 1,7 10,8 19 11 42 23 W 1019,4 50 0 0,0
08.12.2018 18:00:00 13,1 1,4 11,6 23 13 47 26 W 1019,0 50 0 0,0
08.12.2018 17:00:00 13,8 0,4 12,6 25 13 55 30 WNW 1018,6 50 33 0,0
08.12.2018 16:00:00 15,1 0,1 15,6 35 19 64 35 WNW 1018,2 50 60 0,0
08.12.2018 15:00:00 15,7 -0,5 17,2 29 16 64 34 WNW 1018,4 46 60 0,0
08.12.2018 14:00:00 15,4 -0,4 16,9 42 23 67 36 WNW 1018,5 41 60 0,0
08.12.2018 13:00:00 14,8 1,3 16,8 29 16 63 34 W 1019,0 19 60 0,0
08.12.2018 12:00:00 14,6 0,4 15,2 24 13 48 26 WNW 1019,4 41 60 0,0
08.12.2018 11:00:00 12,9 -0,7 13,9 32 18 54 29 WNW 1020,2 37 60 0,0
08.12.2018 10:00:00 11,6 -0,6 11,4 33 18 56 31 W 1019,9 39 60 0,0
08.12.2018 09:00:00 10,5 -0,9 8,5 36 19 59 32 W 1019,7 50 41 0,0
08.12.2018 08:00:00 9,9 -1,8 8,0 29 16 47 26 W 1019,4 50 0 0,0
08.12.2018 07:00:00 10,1 -1,6 8,4 21 12 51 28 W 1018,6 50 0 0,0
08.12.2018 06:00:00 10,1 -1,0 8,9 29 16 51 27 W 1018,0 50 0 0,0
08.12.2018 05:00:00 10,8 -1,0 9,4 29 16 56 30 W 1017,2 50 0 0,0
08.12.2018 04:00:00 11,2 -0,3 9,9 33 18 64 35 W 1016,6 50 0 0,0
08.12.2018 03:00:00 11,4 2,4 10,1 40 21 64 35 W 1015,3 50 0 0,0
08.12.2018 02:00:00 12,1 3,6 11,1 37 20 70 38 WNW 1015,6 50 0 0,0
08.12.2018 01:00:00 12,5 5,9 10,6 49 27 77 42 W 1014,6 50 0 0,0
08.12.2018 00:00:00 12,0 7,1 10,8 27 15 50 27 W 1016,0 50 0 0,0
07.12.2018 23:00:00 12,0 6,5 10,9 28 15 45 25 WSW 1016,6 50 0 0,0
07.12.2018 22:00:00 12,3 6,8 10,8 28 15 49 26 W 1017,2 50 0 0,0
07.12.2018 21:00:00 12,1 7,4 10,4 22 12 34 19 W 1017,8 50 0 0,0
07.12.2018 20:00:00 11,8 8,3 10,5 14 8 29 16 WSW 1018,4 50 0 0,0
07.12.2018 19:00:00 12,3 8,4 11,0 18 10 35 19 W 1018,4 50 0 0,0
07.12.2018 18:00:00 12,9 8,8 11,4 16 9 32 18 W 1018,9 50 0 0,0
07.12.2018 17:00:00 13,4 10,7 11,8 11 6 16 9 WSW 1018,3 45 30 0,0
07.12.2018 16:00:00 14,6 11,2 17,2 3 2 9 5 S 1018,1 43 60 0,0
07.12.2018 15:00:00 14,4 11,5 17,0 3 2 8 4 S 1019,4 18 56 0,0
07.12.2018 14:00:00 11,4 10,6 13,0 3 1 7 4 NNE 1020,4 7 17 0,0
07.12.2018 13:00:00 10,3 10,0 11,6 0 0 9 5 N 1021,7 6 0 0,0
07.12.2018 12:00:00 9,9 9,9 10,5 2 1 7 4 S 1022,7 7 0 0,0
07.12.2018 11:00:00 8,8 8,8 8,7 4 2 8 4 SE 1023,7 7 0 0,0
07.12.2018 10:00:00 7,6 7,6 7,4 4 2 8 4 S 1023,5 0,3 0 0,0
07.12.2018 09:00:00 6,9 6,9 6,5 0 0 4 2 N 1023,4 0,3 0 0,0
07.12.2018 08:00:00 6,5 6,5 6,0 0 0 5 3 N 1023,5 2,7 0 0,0
07.12.2018 07:00:00 6,2 6,2 6,0 0 0 6 3 N 1023,8 0,2 0 0,0
07.12.2018 06:00:00 6,6 6,6 6,4 0 0 3 1 N 1023,2 0,2 0 0,0
07.12.2018 05:00:00 6,4 6,4 5,8 0 0 6 3 N 1023,6 0,1 0 0,0
07.12.2018 04:00:00 6,1 6,0 5,4 3 1 5 3 N 1023,6 0,2 0 0,0
07.12.2018 03:00:00 5,9 5,8 5,5 0 0 4 2 N 1023,8 0,2 0 0,0
07.12.2018 02:00:00 6,3 6,2 5,1 2 1 5 3 SSE 1023,5 0,1 0 0,0
07.12.2018 01:00:00 5,7 5,4 3,5 2 1 3 2 W 1023,9 0,2 0 0,0
07.12.2018 00:00:00 5,6 5,0 2,6 0 0 4 2 N 1024,0 10 0 0,0
06.12.2018 23:00:00 6,1 5,5 3,5 2 1 4 2 W 1023,9 8 0 0,0
06.12.2018 22:00:00 7,0 6,4 4,3 0 0 9 5 N 1023,8 8 0 0,0
06.12.2018 21:00:00 8,3 7,7 4,9 3 2 6 3 WSW 1023,5 8 0 0,0
06.12.2018 20:00:00 9,2 8,3 6,2 0 0 5 3 N 1022,9 9 0 0,0
06.12.2018 19:00:00 11,1 9,7 7,8 0 0 7 4 N 1022,3 10 0 0,0
06.12.2018 18:00:00 12,0 9,9 9,1 4 2 14 8 N 1021,6 13 0 0,0
06.12.2018 17:00:00 13,4 10,4 11,7 9 5 17 9 ENE 1020,8 19 30 0,0
06.12.2018 16:00:00 16,0 11,2 17,2 13 7 20 11 ENE 1020,2 27 60 0,0
06.12.2018 15:00:00 18,0 10,1 19,1 8 4 20 11 NE 1019,5 34 56 0,0
06.12.2018 14:00:00 18,4 9,5 20,3 16 9 43 23 NNW 1019,1 44 60 0,0
06.12.2018 13:00:00 18,3 8,5 19,5 23 13 43 23 NW 1019,1 41 60 0,0
06.12.2018 12:00:00 16,9 8,8 17,7 27 15 42 23 WNW 1019,3 43 60 0,0
06.12.2018 11:00:00 15,5 8,7 15,7 13 7 32 17 WNW 1020,7 40 60 0,0
06.12.2018 10:00:00 12,9 9,0 12,2 14 8 32 18 W 1020,9 43 60 0,0
06.12.2018 09:00:00 11,2 8,1 7,9 28 15 39 21 W 1021,0 48 43 0,0
06.12.2018 08:00:00 9,2 7,3 8,0 13 7 32 17 WSW 1020,8 45 0 0,0
06.12.2018 07:00:00 9,5 8,1 8,0 14 7 25 14 SW 1021,2 39 0 0,0
06.12.2018 06:00:00 9,8 8,6 7,6 16 9 24 13 WSW 1021,2 29 0 0,0
06.12.2018 05:00:00 8,7 8,1 6,7 12 6 18 10 W 1021,4 18 0 0,0
06.12.2018 04:00:00 8,8 8,2 7,1 9 5 16 9 SW 1022,1 16 0 0,0
06.12.2018 03:00:00 8,0 7,7 6,9 6 3 8 4 SW 1022,9 10 0 0,0
06.12.2018 02:00:00 7,0 6,6 5,4 3 1 5 3 E 1023,4 10 0 0,0
06.12.2018 01:00:00 6,8 6,2 5,2 3 1 5 3 NE 1024,0 10 0 0,0
06.12.2018 00:00:00 7,0 6,6 4,7 4 2 6 3 NW 1024,6 13 0 0,0

tt = temperature
td = dewpoint
tt 5cm = temperature 5cm
ff = wind speed
fx = gusts
dd = wind direction
ppp = reduced air pressure
vv = visibility
sd = sunshine duration
rr = precipitation

Next stations